Wind_Speed
2 0 3 4 4 4 11 2 3 12 9 8 9 6 4 4 12 15 10 8 6 3 5 5 5 5 6 8 8 9 10 10 11 11 12 13 12 12 11 9 8 6 5 6 5 4 4 4 4
3 4 2 1 2 7 9 3 9 9 5 8 8 7 4 8 11 14 12 7 5 3 4 5 5 6 8 10 10 9 10 10 11 11 11 12 10 10 8 7 6 6 5 5 5 4 2 3 2
5 4 4 5 6 6 10 7 9 12 10 9 8 8 8 10 8 11 9 8 4 3 3 5 5 6 9 11 11 10 10 11 11 12 11 9 8 7 8 8 9 9 8 8 6 4 3 3 3
7 3 3 12 10 11 9 10 9 10 10 11 10 6 7 9 11 11 8 6 4 3 3 5 6 7 9 10 10 10 11 11 11 12 12 11 9 10 10 11 13 13 11 10 9 6 6 5 6
6 2 3 9 14 16 10 9 7 9 10 11 10 8 7 8 7 9 6 5 3 3 3 6 7 7 9 10 10 10 10 10 11 12 12 12 12 12 13 14 14 14 14 14 11 9 10 10 14
5 5 8 13 9 10 12 9 5 6 7 9 9 11 9 10 11 7 4 4 3 3 5 7 8 7 9 10 10 10 10 11 12 12 12 15 15 14 14 15 15 16 16 18 17 18 21 21 18
6 9 9 8 9 10 13 11 9 6 7 7 10 11 10 12 11 7 6 4 2 3 6 9 8 8 10 10 10 11 12 13 13 13 15 17 15 15 15 14 14 16 17 17 20 21 21 19 16
9 6 6 13 11 12 15 10 18 5 8 10 12 13 14 13 8 3 5 3 2 5 6 9 8 9 11 11 10 12 14 14 15 16 17 15 15 15 14 13 13 16 19 20 21 20 18 18 16
10 4 4 10 11 8 13 14 11 4 8 10 13 11 7 16 10 6 5 4 5 7 8 9 9 10 12 11 13 14 16 16 17 17 17 15 15 15 14 14 15 14 14 15 15 17 18 18 16
14 14 4 12 13 15 12 10 10 8 10 8 10 14 14 11 16 10 7 6 7 9 9 8 10 12 12 13 16 18 18 16 17 17 17 16 15 13 13 13 15 13 12 12 11 13 15 16 16
16 15 9 12 15 10 13 9 11 9 9 10 12 15 21 11 15 9 7 5 7 9 10 10 10 12 13 18 21 21 19 17 16 17 16 14 13 13 12 10 12 11 10 8 9 10 11 13 14
18 15 14 14 15 12 17 13 10 11 7 8 15 16 20 15 13 12 10 10 9 9 9 12 12 13 17 21 22 20 17 18 17 16 14 13 13 11 10 10 9 11 7 5 6 6 10 10 9
17 19 18 16 17 13 13 15 12 13 15 13 15 15 16 19 15 12 10 9 9 9 12 14 14 16 20 24 21 18 15 14 15 14 13 11 10 9 9 8 7 6 7 6 6 8 11 10 10
23 24 20 19 21 18 21 16 13 13 14 16 15 18 19 19 18 15 13 10 9 9 13 16 16 20 22 24 20 21 15 17 15 14 13 11 10 10 9 9 7 7 8 6 7 8 7 8 8
27 23 21 18 16 18 18 12 15 11 13 12 14 15 17 18 19 17 17 13 11 12 14 17 19 22 23 23 17 20 15 15 16 13 13 12 10 10 10 10 8 9 8 7 7 9 8 9 10
29 28 22 22 19 19 15 19 18 15 12 12 11 12 13 15 18 19 17 14 10 13 16 17 21 23 23 21 18 21 19 16 15 15 13 9 6 8 7 7 7 7 8 10 12 11 12 9 10
38 27 24 25 24 22 20 22 15 17 12 8 10 12 11 10 12 18 18 18 13 16 16 18 21 24 23 18 17 17 19 17 14 13 13 12 9 6 8 4 7 10 12 12 12 11 10 7 8
36 26 27 26 24 23 20 23 21 18 12 10 11 12 11 10 9 13 19 19 18 16 18 20 23 25 23 20 18 16 15 16 14 12 11 12 9 8 8 7 10 12 12 13 16 15 11 12 10
34 33 32 27 26 25 25 24 20 19 17 13 16 14 10 9 7 9 13 18 22 18 19 21 23 24 23 21 19 19 15 14 14 13 11 10 11 10 9 7 10 11 11 15 17 15 14 12 14
35 37 36 33 33 33 31 33 27 23 21 20 20 16 14 10 9 9 10 16 22 22 21 21 24 24 24 23 22 20 17 15 12 11 10 10 10 11 10 10 10 11 11 12 15 16 15 13 12
39 37 37 32 38 36 34 34 40 34 31 29 25 23 19 14 11 10 10 15 20 25 23 23 24 27 25 24 21 18 15 14 12 10 9 10 10 10 9 10 9 10 11 11 13 14 13 11 12
42 34 34 38 41 41 38 36 34 36 34 29 28 21 21 16 13 10 12 12 18 27 26 26 27 27 26 22 18 18 20 17 13 12 12 11 10 9 8 8 8 7 8 8 10 11 11 10 11
33 36 39 41 46 43 45 45 41 38 37 25 24 22 24 21 14 11 11 14 20 25 27 27 28 26 25 24 23 22 20 14 14 12 13 14 11 9 8 7 7 7 6 5 7 9 8 9 10
38 43 43 47 49 56 47 50 46 41 29 26 28 23 21 19 18 13 11 13 14 24 31 28 28 28 25 24 23 22 19 17 17 16 15 14 12 8 7 6 6 6 6 5 2 5 6 5 7
49 48 49 51 58 59 49 53 44 39 37 33 28 23 19 19 19 15 11 11 13 17 26 25 26 25 25 24 24 22 19 19 19 16 15 14 13 9 6 6 5 3 4 5 5 6 5 5 5
55 54 56 57 57 55 52 62 48 34 37 38 34 29 29 27 20 12 13 13 14 20 23 24 24 25 26 24 24 23 20 21 19 17 18 16 14 11 8 5 4 2 1 3 5 6 7 6 5
61 59 54 55 55 55 58 57 44 37 42 37 37 38 33 32 27 22 13 15 16 19 22 23 26 27 27 27 27 25 22 21 18 19 19 16 14 13 9 7 5 4 4 4 4 5 6 7 7
64 58 56 60 59 59 60 55 50 40 40 41 38 40 37 34 28 25 25 14 19 20 23 25 27 29 30 30 30 28 25 23 20 20 19 17 15 13 11 9 8 7 7 8 8 7 7 7 6
65 66 62 56 58 58 58 52 47 39 42 42 38 37 37 35 32 25 26 23 22 23 23 26 27 29 32 31 31 29 26 23 20 21 21 17 15 14 12 11 11 13 12 12 11 9 8 7 6
69 64 66 65 63 61 59 53 46 43 40 43 35 41 44 38 36 24 27 25 22 24 24 25 28 26 27 31 32 30 29 25 22 22 19 17 16 16 16 15 15 16 16 15 13 11 11 9 8
Wind_Direction
140 64 76 43 65 140 133 165 74 122 83 110 130 120 142 147 141 129 103 89 94 79 67 66 66 79 83 106 107 99 95 100 101 110 105 100 101 103 107 100 93 79 59 49 39 39 61 69 79
222 218 166 136 160 163 127 152 97 158 97 121 147 123 111 141 128 126 122 90 77 50 53 78 88 94 117 127 121 113 112 109 105 109 104 100 101 98 97 92 75 60 53 54 52 51 66 86 114
239 242 200 210 195 186 145 151 130 123 122 123 115 120 104 146 144 151 141 113 79 37 58 93 107 117 131 125 120 113 105 100 103 98 96 101 99 97 87 74 64 58 53 53 46 39 45 86 97
238 242 227 256 237 199 155 158 143 133 122 114 110 110 126 145 161 158 151 124 105 51 60 112 113 111 119 108 102 95 90 91 97 94 95 97 90 81 81 78 69 61 52 45 32 21 55 90 120
218 185 278 78 163 149 156 143 153 145 132 125 130 127 144 145 154 157 151 160 148 119 102 117 110 107 113 104 98 94 90 95 101 101 96 93 88 89 85 76 71 65 59 58 52 62 91 94 113
178 145 134 123 137 157 176 143 174 170 173 135 128 129 144 151 146 150 164 191 162 138 137 125 119 113 115 114 107 98 97 105 105 105 107 99 97 91 82 78 73 72 74 70 71 83 89 94 103
156 171 140 136 152 147 174 175 145 155 155 156 142 135 132 135 144 142 186 193 156 138 148 133 134 127 125 123 112 115 117 121 119 119 111 104 103 94 84 75 74 79 77 75 74 86 84 93 94
171 147 199 192 175 167 196 200 173 200 179 171 134 133 139 138 138 169 180 154 119 132 148 140 140 139 136 125 121 127 127 125 123 118 109 108 104 97 89 81 79 81 82 80 82 87 91 93 94
189 186 209 188 194 189 184 216 187 219 206 189 148 142 142 144 139 138 125 112 121 129 144 143 143 145 138 129 129 132 130 128 118 111 108 104 99 95 88 87 87 84 85 84 86 89 94 91 94
202 185 162 152 206 191 178 169 184 192 187 173 147 141 130 161 137 142 139 131 136 141 142 138 147 150 140 136 136 133 133 123 114 108 105 102 101 92 90 90 90 89 85 78 89 83 85 84 80
222 209 221 180 163 157 143 189 196 204 196 167 155 150 133 159 132 137 122 108 139 146 148 138 151 152 142 140 138 135 130 125 119 116 116 110 109 90 103 99 94 83 72 71 66 79 83 81 87
221 214 211 199 191 172 173 184 179 189 174 179 151 152 153 149 141 131 124 123 142 151 157 144 153 151 144 142 139 135 130 122 120 121 107 105 99 102 113 98 84 83 75 59 63 64 83 82 84
216 215 201 208 212 197 179 171 175 168 163 165 152 151 167 142 144 126 130 121 132 154 156 152 155 150 146 146 145 138 132 129 123 114 111 99 90 94 110 97 85 73 71 56 54 59 75 88 79
214 215 203 201 204 219 211 187 189 149 159 155 151 157 168 162 154 140 142 145 145 150 157 160 155 152 151 151 146 141 132 127 126 120 105 99 97 92 88 93 93 79 72 70 66 48 46 65 83
213 214 208 199 187 187 208 201 197 164 152 159 158 159 171 173 173 171 162 158 159 154 160 165 158 155 156 159 157 153 143 131 128 114 111 99 98 100 93 81 70 64 58 40 46 50 62 69 91
220 214 213 206 201 193 222 214 197 200 174 154 152 158 170 174 174 179 179 168 156 159 162 170 161 159 162 167 167 156 149 138 129 124 114 113 113 104 78 62 57 62 65 75 66 69 72 77 94
222 214 218 218 212 209 221 213 205 189 178 159 157 155 162 161 167 178 181 182 171 168 164 173 166 164 165 168 166 158 147 145 136 129 126 114 112 78 69 68 67 69 82 90 88 67 69 75 76
230 222 221 221 225 207 212 211 196 194 194 178 176 155 153 156 176 185 179 184 178 173 173 176 170 167 168 168 163 161 155 147 147 145 137 124 112 96 78 79 84 84 86 88 83 77 62 61 70
233 229 227 221 226 213 213 228 218 207 200 190 173 175 165 144 162 199 205 183 180 177 176 179 174 172 170 169 169 166 164 154 155 152 141 127 114 104 97 81 77 85 86 97 97 88 75 66 65
230 226 226 221 223 218 217 225 227 219 195 182 186 184 170 163 173 179 200 205 176 180 182 182 180 176 178 177 180 172 164 162 158 147 143 132 116 108 99 97 82 89 99 99 92 87 80 72 75
229 224 225 223 227 225 217 223 228 220 208 205 201 200 179 160 147 166 185 196 188 182 184 183 184 179 186 187 183 175 166 166 163 158 151 139 117 107 102 96 91 83 90 85 83 82 76 66 62
227 228 224 221 225 229 224 222 223 213 212 212 205 203 196 167 162 161 172 184 192 185 186 188 188 188 187 186 186 183 179 181 178 167 159 152 132 125 109 98 97 95 89 68 82 83 78 66 58
221 225 224 222 225 225 227 222 212 211 216 217 214 196 181 165 169 164 171 179 188 187 188 190 192 194 188 184 185 194 196 182 183 181 168 158 152 143 121 105 92 81 77 63 56 69 77 74 68
215 218 220 220 222 225 218 230 207 217 207 199 194 181 178 167 154 151 165 180 178 188 186 192 192 194 192 187 193 198 201 190 184 184 176 166 160 154 137 122 104 79 66 61 29 42 61 54 65
213 214 218 219 218 222 214 229 213 211 197 193 187 178 178 174 160 147 151 172 176 176 184 190 196 192 193 195 195 199 202 200 192 186 176 172 169 168 162 143 128 109 75 52 36 31 22 21 28
214 215 220 221 220 221 216 226 222 196 194 197 194 193 181 180 168 159 169 165 183 181 186 189 195 198 195 197 199 200 202 208 195 178 175 177 178 179 188 178 156 201 313 9 16 22 28 22 22
211 212 218 226 228 226 224 225 224 192 196 195 196 198 193 191 174 168 180 178 185 187 188 196 195 198 201 200 205 203 198 209 198 185 181 180 182 192 201 207 219 234 279 302 324 338 355 8 22
215 213 215 220 222 228 230 224 225 197 190 179 188 197 198 188 178 182 179 183 186 190 195 198 198 194 199 204 203 201 198 207 204 188 188 191 196 202 208 217 231 240 254 277 292 302 317 339 351
214 212 212 221 229 229 233 229 226 204 199 195 193 202 203 192 189 198 183 185 188 190 195 203 200 196 198 203 203 201 201 205 206 197 192 197 202 210 221 229 244 254 257 264 274 285 291 303 314
217 212 213 216 221 223 230 228 225 220 205 199 207 207 209 198 195 189 202 183 189 191 193 202 204 200 200 202 206 206 202 204 201 192 193 196 201 215 231 243 247 251 256 258 261 268 274 279 282
Height
5871 5872 5873 5873 5878 5875 5875 5878 5877 5877 5880 5880 5881 5883 5885 5883 5884 5889 5889 5890 5891 5892 5892 5892 5893 5894 5894 5894 5894 5895 5897 5898 5899 5900 5901 5901 5902 5902 5902 5904 5904 5904 5904 5903 5902 5903 5902 5902 5903
5873 5873 5874 5875 5876 5877 5877 5877 5877 5880 5881 5882 5882 5884 5884 5884 5886 5887 5890 5892 5892 5893 5894 5894 5895 5896 5896 5896 5897 5898 5899 5900 5901 5902 5902 5902 5903 5904 5905 5905 5906 5906 5906 5904 5903 5903 5902 5902 5903
5873 5874 5875 5874 5875 5878 5878 5878 5879 5881 5881 5883 5884 5885 5885 5886 5887 5889 5891 5892 5894 5895 5895 5895 5897 5898 5898 5899 5899 5900 5901 5901 5902 5903 5904 5904 5905 5905 5906 5906 5906 5906 5906 5905 5904 5902 5902 5903 5903
5874 5875 5875 5875 5876 5877 5877 5879 5881 5881 5882 5883 5884 5886 5887 5887 5887 5889 5891 5893 5894 5896 5896 5896 5898 5898 5898 5899 5899 5900 5901 5902 5903 5904 5906 5906 5907 5908 5908 5908 5908 5908 5908 5906 5905 5903 5902 5903 5905
5873 5874 5874 5873 5873 5877 5878 5879 5882 5882 5882 5882 5884 5885 5888 5888 5889 5890 5892 5894 5895 5896 5897 5897 5898 5898 5899 5900 5900 5901 5902 5904 5905 5906 5907 5908 5909 5910 5910 5910 5910 5910 5910 5909 5907 5905 5904 5904 5906
5872 5875 5875 5876 5877 5878 5879 5880 5883 5883 5884 5883 5885 5886 5888 5888 5889 5892 5893 5894 5896 5896 5897 5898 5899 5900 5900 5901 5902 5903 5905 5906 5907 5908 5909 5909 5911 5912 5912 5912 5912 5913 5912 5912 5910 5909 5908 5908 5911
5874 5876 5877 5877 5878 5880 5882 5882 5884 5884 5884 5886 5885 5886 5889 5889 5891 5892 5893 5895 5896 5897 5898 5899 5900 5901 5902 5903 5904 5905 5907 5908 5909 5911 5911 5912 5913 5913 5914 5915 5915 5915 5915 5915 5914 5913 5913 5913 5914
5874 5876 5877 5878 5879 5880 5881 5882 5884 5885 5884 5884 5885 5886 5888 5890 5891 5893 5894 5896 5897 5898 5899 5900 5901 5903 5904 5905 5906 5908 5909 5911 5912 5913 5914 5915 5916 5916 5916 5917 5917 5919 5919 5919 5918 5918 5918 5917 5917
5874 5876 5875 5873 5877 5878 5880 5882 5884 5885 5885 5884 5884 5886 5888 5889 5891 5893 5895 5896 5898 5899 5900 5901 5903 5904 5905 5906 5908 5910 5912 5913 5915 5916 5917 5918 5919 5919 5919 5920 5920 5921 5922 5923 5922 5921 5921 5921 5920
5873 5875 5876 5875 5875 5877 5880 5882 5884 5884 5884 5884 5884 5885 5887 5891 5889 5893 5895 5897 5899 5900 5901 5902 5904 5905 5906 5908 5910 5912 5914 5917 5918 5919 5920 5921 5921 5921 5922 5923 5923 5924 5925 5926 5924 5924 5923 5923 5923
5871 5874 5874 5876 5876 5878 5879 5880 5881 5882 5883 5882 5883 5884 5885 5891 5890 5892 5894 5897 5899 5901 5902 5903 5905 5907 5907 5909 5912 5915 5917 5919 5920 5921 5922 5922 5923 5923 5924 5925 5925 5925 5926 5926 5926 5927 5926 5927 5927
5869 5871 5872 5875 5876 5878 5878 5879 5880 5881 5881 5882 5882 5884 5884 5889 5891 5892 5894 5897 5899 5902 5903 5904 5906 5908 5909 5912 5915 5917 5919 5921 5922 5923 5925 5925 5924 5925 5927 5927 5927 5928 5927 5927 5928 5929 5928 5928 5928
5867 5869 5870 5872 5875 5878 5879 5879 5878 5879 5881 5883 5881 5883 5887 5887 5891 5892 5896 5898 5900 5902 5904 5905 5907 5909 5911 5914 5917 5919 5921 5923 5924 5926 5926 5927 5927 5928 5929 5929 5928 5928 5929 5929 5929 5930 5930 5929 5929
5861 5863 5868 5870 5874 5877 5879 5879 5881 5879 5880 5880 5880 5882 5886 5887 5890 5892 5895 5898 5900 5903 5904 5905 5908 5910 5913 5916 5918 5921 5923 5924 5925 5927 5928 5928 5928 5930 5930 5931 5930 5929 5930 5930 5931 5931 5931 5930 5930
5858 5862 5866 5869 5872 5874 5876 5879 5879 5879 5880 5881 5881 5882 5884 5887 5889 5892 5894 5897 5900 5902 5904 5906 5908 5911 5915 5918 5919 5922 5924 5925 5927 5929 5929 5930 5930 5931 5932 5932 5932 5931 5931 5931 5931 5932 5931 5930 5931
5853 5857 5862 5866 5870 5874 5877 5878 5878 5878 5879 5880 5881 5882 5884 5885 5889 5892 5895 5898 5901 5902 5904 5907 5909 5912 5916 5919 5921 5923 5924 5926 5928 5930 5931 5932 5933 5933 5934 5934 5933 5933 5933 5933 5932 5933 5932 5932 5932
5844 5855 5859 5862 5867 5871 5874 5875 5876 5876 5876 5879 5880 5882 5884 5885 5888 5891 5894 5897 5900 5902 5905 5907 5910 5913 5916 5919 5923 5926 5926 5927 5929 5931 5933 5934 5935 5936 5935 5936 5935 5934 5935 5935 5936 5935 5934 5934 5934
5844 5853 5856 5859 5863 5866 5871 5874 5872 5873 5875 5878 5881 5882 5883 5884 5887 5889 5891 5895 5899 5902 5904 5908 5910 5913 5916 5920 5923 5927 5929 5929 5931 5933 5934 5935 5937 5938 5938 5938 5937 5936 5937 5937 5937 5937 5937 5937 5936
5842 5846 5851 5856 5858 5861 5867 5869 5872 5871 5873 5877 5879 5880 5882 5884 5885 5887 5890 5892 5897 5901 5905 5908 5911 5914 5917 5921 5924 5926 5929 5930 5932 5933 5936 5937 5939 5939 5939 5940 5938 5938 5939 5940 5941 5940 5940 5939 5938
5832 5838 5844 5850 5852 5855 5860 5864 5866 5871 5872 5872 5875 5877 5880 5881 5883 5884 5886 5891 5895 5899 5903 5907 5911 5914 5917 5919 5922 5925 5928 5931 5932 5933 5936 5938 5940 5941 5941 5941 5940 5941 5942 5942 5942 5942 5942 5943 5942
5823 5831 5838 5847 5846 5850 5853 5855 5857 5865 5865 5866 5871 5873 5876 5879 5881 5882 5883 5886 5892 5897 5903 5906 5910 5913 5917 5918 5922 5926 5928 5931 5932 5933 5936 5939 5941 5942 5942 5941 5942 5943 5943 5944 5944 5944 5944 5944 5945
5814 5826 5832 5835 5837 5840 5846 5850 5853 5859 5862 5865 5867 5873 5875 5876 5879 5881 5882 5884 5889 5894 5898 5903 5908 5912 5915 5919 5922 5925 5926 5927 5931 5933 5936 5939 5941 5944 5943 5943 5944 5945 5945 5946 5946 5945 5946 5946 5946
5816 5815 5818 5824 5826 5832 5832 5838 5847 5851 5858 5866 5868 5869 5872 5873 5876 5878 5880 5881 5884 5890 5896 5901 5906 5911 5914 5918 5921 5924 5926 5929 5932 5934 5935 5938 5941 5944 5944 5945 5946 5946 5946 5947 5947 5947 5948 5948 5948
5803 5803 5806 5809 5814 5810 5825 5826 5839 5843 5858 5863 5865 5866 5869 5872 5873 5874 5878 5880 5881 5885 5892 5898 5903 5909 5913 5916 5920 5923 5927 5930 5931 5933 5935 5937 5940 5943 5945 5945 5946 5947 5947 5948 5949 5949 5949 5949 5949
5785 5790 5792 5794 5794 5797 5818 5814 5828 5841 5851 5860 5863 5865 5867 5870 5870 5872 5874 5878 5880 5883 5891 5897 5902 5906 5911 5915 5919 5922 5925 5928 5930 5932 5934 5936 5939 5941 5943 5945 5945 5946 5947 5949 5949 5948 5949 5949 5950
5771 5779 5782 5781 5787 5797 5808 5797 5814 5839 5847 5853 5858 5862 5860 5864 5867 5871 5872 5875 5878 5881 5888 5893 5899 5904 5909 5913 5917 5921 5924 5927 5929 5932 5933 5934 5937 5939 5942 5944 5945 5945 5947 5948 5949 5948 5948 5949 5949
5759 5763 5780 5778 5785 5791 5793 5799 5815 5829 5834 5843 5852 5855 5857 5859 5862 5866 5871 5873 5876 5879 5885 5891 5895 5900 5906 5911 5914 5919 5922 5926 5928 5929 5931 5933 5936 5937 5940 5942 5943 5945 5946 5947 5947 5947 5948 5948 5948
5748 5762 5759 5763 5772 5778 5782 5793 5803 5822 5830 5838 5846 5851 5854 5857 5860 5862 5864 5870 5873 5877 5881 5886 5891 5895 5902 5907 5912 5916 5920 5923 5925 5926 5929 5932 5934 5936 5938 5940 5941 5944 5945 5946 5946 5946 5947 5948 5948
5739 5739 5749 5759 5765 5773 5777 5789 5802 5818 5826 5833 5843 5850 5853 5855 5858 5860 5862 5865 5868 5872 5878 5884 5888 5891 5896 5903 5909 5913 5917 5920 5923 5924 5926 5930 5932 5934 5936 5938 5940 5941 5942 5944 5945 5945 5945 5946 5947
5722 5733 5738 5742 5754 5759 5767 5781 5795 5807 5818 5826 5834 5842 5849 5852 5855 5859 5861 5862 5865 5870 5874 5880 5884 5889 5894 5899 5905 5909 5912 5915 5918 5920 5923 5926 5929 5931 5933 5935 5937 5938 5940 5941 5942 5943 5943 5944 5945